When you browse on this site, cookies collect data to enhance your experience and personalize the content and advertising you see.
Visit our Privacy Policy to learn more. By continuing to use the site, you agree to this use of cookies and data.
  • In Österreich
  • Länderverzeichnis
  • Für 7 Tage
  • Wassertemperatur
  • Satellitenkarten
  • Wetterkarte
  • News
  • Widgets
  • user-avatar
    Anmelden

    Stündliche Wetter Zaranj

    Heute, 21 April, Sonntag

    Zeit Temperatur Niederschläge Wind Luftdruck Luftfeuchtigkeit
    00:00 +34°C° 0 mm 4 m/S 712 mmHg 17%
    01:00 +33°C° 0 mm 4 m/S 711 mmHg 18%
    02:00 +33°C° 0 mm 4 m/S 711 mmHg 17%
    03:00 +32°C° 0 mm 4 m/S 711 mmHg 17%
    04:00 +30°C° 0 mm 4 m/S 712 mmHg 17%
    05:00 +30°C° 0 mm 5 m/S 712 mmHg 18%
    06:00 +30°C° 0 mm 6 m/S 713 mmHg 19%
    07:00 +30°C° 0 mm 7 m/S 714 mmHg 19%
    08:00 +31°C° 0 mm 8 m/S 714 mmHg 23%
    09:00 +29°C° 0 mm 9 m/S 714 mmHg 27%
    10:00 +29°C° 0 mm 10 m/S 714 mmHg 30%
    11:00 +31°C° 0 mm 9 m/S 714 mmHg 26%
    12:00 +33°C° 0 mm 8 m/S 714 mmHg 22%
    13:00 +34°C° 0 mm 8 m/S 714 mmHg 18%
    14:00 +35°C° 0 mm 7 m/S 714 mmHg 17%
    15:00 +35°C° 0 mm 6 m/S 714 mmHg 16%
    16:00 +36°C° 0 mm 5 m/S 713 mmHg 15%
    17:00 +35°C° 0 mm 5 m/S 713 mmHg 18%
    18:00 +34°C° 0 mm 5 m/S 713 mmHg 20%
    19:00 +32°C° 0 mm 5 m/S 713 mmHg 23%
    20:00 +30°C° 0 mm 6 m/S 713 mmHg 26%
    21:00 +29°C° 0 mm 6 m/S 714 mmHg 29%
    22:00 +28°C° 0 mm 7 m/S 714 mmHg 32%
    23:00 +27°C° 0 mm 7 m/S 714 mmHg 35%

    Morgen, 22 April, Montag

    Zeit Temperatur Niederschläge Wind Luftdruck Luftfeuchtigkeit
    00:00 +26°C° 0 mm 8 m/S 714 mmHg 38%
    01:00 +24°C° 0 mm 9 m/S 713 mmHg 42%
    02:00 +23°C° 0 mm 8 m/S 713 mmHg 42%
    03:00 +23°C° 0 mm 8 m/S 713 mmHg 42%
    04:00 +22°C° 0 mm 8 m/S 713 mmHg 42%
    05:00 +22°C° 0 mm 7 m/S 714 mmHg 42%
    06:00 +22°C° 0 mm 7 m/S 714 mmHg 42%
    07:00 +22°C° 0 mm 6 m/S 715 mmHg 41%
    08:00 +25°C° 0 mm 5 m/S 715 mmHg 37%
    09:00 +27°C° 0 mm 5 m/S 715 mmHg 32%
    10:00 +29°C° 0 mm 5 m/S 715 mmHg 28%
    11:00 +30°C° 0 mm 4 m/S 715 mmHg 25%
    12:00 +33°C° 0 mm 3 m/S 715 mmHg 22%
    13:00 +34°C° 0 mm 2 m/S 714 mmHg 20%
    14:00 +35°C° 0.1 mm 2 m/S 714 mmHg 19%
    15:00 +35°C° 0.1 mm 1 m/S 714 mmHg 18%
    16:00 +35°C° 0.1 mm 1 m/S 713 mmHg 17%
    17:00 +35°C° 0 mm 1 m/S 713 mmHg 18%
    18:00 +35°C° 0 mm 1 m/S 713 mmHg 19%
    19:00 +35°C° 0 mm 1 m/S 713 mmHg 19%
    20:00 +35°C° 0 mm 2 m/S 714 mmHg 20%
    21:00 +35°C° 0 mm 2 m/S 714 mmHg 21%
    22:00 +34°C° 0 mm 2 m/S 714 mmHg 23%
    23:00 +32°C° 0 mm 2 m/S 714 mmHg 23%

    übermorgen, 23 April, Dienstag

    Zeit Temperatur Niederschläge Wind Luftdruck Luftfeuchtigkeit
    00:00 +32°C° 0 mm 2 m/S 714 mmHg 24%
    01:00 +32°C° 0 mm 2 m/S 713 mmHg 24%
    02:00 +31°C° 0.2 mm 2 m/S 713 mmHg 26%
    03:00 +30°C° 0.2 mm 1 m/S 713 mmHg 28%
    04:00 +30°C° 0.2 mm 1 m/S 713 mmHg 30%
    05:00 +30°C° 0.1 mm 1 m/S 714 mmHg 29%
    06:00 +31°C° 0.1 mm 1 m/S 714 mmHg 28%
    07:00 +32°C° 0.1 mm 1 m/S 714 mmHg 26%
    08:00 +33°C° 0.2 mm 1 m/S 715 mmHg 24%
    09:00 +35°C° 0.2 mm 2 m/S 715 mmHg 23%
    10:00 +36°C° 0.2 mm 2 m/S 715 mmHg 21%
    11:00 +37°C° 0 mm 3 m/S 715 mmHg 19%
    12:00 +40°C° 0 mm 4 m/S 714 mmHg 17%
    13:00 +41°C° 0 mm 5 m/S 714 mmHg 15%
    14:00 +41°C° 0 mm 5 m/S 713 mmHg 14%
    15:00 +41°C° 0 mm 5 m/S 713 mmHg 13%
    16:00 +42°C° 0 mm 6 m/S 712 mmHg 13%
    17:00 +38°C° 0.7 mm 4 m/S 712 mmHg 19%
    18:00 +35°C° 0.7 mm 2 m/S 712 mmHg 26%
    19:00 +31°C° 0.7 mm 1 m/S 712 mmHg 33%
    20:00 +31°C° 0 mm 2 m/S 712 mmHg 33%
    21:00 +31°C° 0 mm 2 m/S 712 mmHg 33%
    22:00 +31°C° 0 mm 3 m/S 712 mmHg 34%
    23:00 +32°C° 0 mm 4 m/S 712 mmHg 34%

    24 April, Mittwoch

    Zeit Temperatur Niederschläge Wind Luftdruck Luftfeuchtigkeit
    00:00 +30°C° 0 mm 4 m/S 712 mmHg 35%
    01:00 +30°C° 0 mm 5 m/S 712 mmHg 36%
    02:00 +27°C° 0 mm 8 m/S 712 mmHg 41%
    03:00 +23°C° 0 mm 11 m/S 712 mmHg 46%
    04:00 +19°C° 0 mm 15 m/S 712 mmHg 52%
    05:00 +18°C° 0 mm 15 m/S 713 mmHg 50%
    06:00 +18°C° 0 mm 15 m/S 714 mmHg 49%
    07:00 +18°C° 0 mm 15 m/S 716 mmHg 48%
    08:00 +19°C° 0 mm 15 m/S 717 mmHg 44%
    09:00 +19°C° 0 mm 15 m/S 718 mmHg 40%
    10:00 +20°C° 0 mm 15 m/S 719 mmHg 36%
    11:00 +22°C° 0 mm 15 m/S 719 mmHg 33%
    12:00 +23°C° 0 mm 14 m/S 719 mmHg 30%
    13:00 +24°C° 0 mm 14 m/S 718 mmHg 27%
    14:00 +24°C° 0 mm 13 m/S 718 mmHg 26%
    15:00 +24°C° 0 mm 12 m/S 718 mmHg 25%
    16:00 +24°C° 0 mm 12 m/S 718 mmHg 25%
    17:00 +23°C° 0 mm 12 m/S 718 mmHg 26%
    18:00 +22°C° 0 mm 11 m/S 719 mmHg 28%
    19:00 +21°C° 0 mm 11 m/S 719 mmHg 30%
    20:00 +19°C° 0 mm 11 m/S 719 mmHg 31%
    21:00 +18°C° 0 mm 12 m/S 720 mmHg 33%
    22:00 +18°C° 0 mm 12 m/S 720 mmHg 34%
    23:00 +17°C° 0 mm 12 m/S 720 mmHg 35%

    25 April, Donnerstag

    Zeit Temperatur Niederschläge Wind Luftdruck Luftfeuchtigkeit
    00:00 +15°C° 0 mm 12 m/S 720 mmHg 37%
    01:00 +15°C° 0 mm 13 m/S 720 mmHg 38%
    02:00 +14°C° 0 mm 13 m/S 720 mmHg 39%
    03:00 +14°C° 0 mm 12 m/S 720 mmHg 40%
    04:00 +13°C° 0 mm 12 m/S 720 mmHg 41%
    05:00 +13°C° 0 mm 12 m/S 721 mmHg 41%
    06:00 +13°C° 0 mm 12 m/S 721 mmHg 40%
    07:00 +13°C° 0 mm 12 m/S 722 mmHg 39%
    08:00 +15°C° 0 mm 12 m/S 722 mmHg 35%
    09:00 +17°C° 0 mm 11 m/S 722 mmHg 31%
    10:00 +18°C° 0 mm 11 m/S 722 mmHg 27%
    11:00 +21°C° 0 mm 10 m/S 722 mmHg 25%
    12:00 +22°C° 0 mm 10 m/S 721 mmHg 22%
    13:00 +23°C° 0 mm 9 m/S 721 mmHg 19%
    14:00 +24°C° 0 mm 9 m/S 720 mmHg 19%
    15:00 +24°C° 0 mm 8 m/S 720 mmHg 18%
    16:00 +24°C° 0 mm 7 m/S 719 mmHg 18%
    17:00 +24°C° 0 mm 7 m/S 719 mmHg 19%
    18:00 +23°C° 0 mm 7 m/S 719 mmHg 21%
    19:00 +22°C° 0 mm 7 m/S 720 mmHg 22%
    20:00 +22°C° 0 mm 8 m/S 720 mmHg 25%
    21:00 +21°C° 0 mm 9 m/S 720 mmHg 27%
    22:00 +19°C° 0 mm 9 m/S 720 mmHg 30%
    23:00 +18°C° 0 mm 10 m/S 720 mmHg 31%

    26 April, Freitag

    Zeit Temperatur Niederschläge Wind Luftdruck Luftfeuchtigkeit
    00:00 +18°C° 0 mm 10 m/S 720 mmHg 33%
    01:00 +17°C° 0 mm 11 m/S 719 mmHg 34%
    02:00 +17°C° 0 mm 11 m/S 719 mmHg 35%
    03:00 +16°C° 0 mm 11 m/S 719 mmHg 35%
    04:00 +16°C° 0 mm 11 m/S 719 mmHg 36%
    05:00 +15°C° 0 mm 12 m/S 720 mmHg 35%
    06:00 +15°C° 0 mm 12 m/S 720 mmHg 34%
    07:00 +15°C° 0 mm 12 m/S 721 mmHg 33%
    08:00 +18°C° 0 mm 12 m/S 721 mmHg 29%
    09:00 +19°C° 0 mm 12 m/S 721 mmHg 25%
    10:00 +22°C° 0 mm 12 m/S 722 mmHg 21%
    11:00 +22°C° 0 mm 12 m/S 721 mmHg 20%
    12:00 +23°C° 0 mm 12 m/S 721 mmHg 19%
    13:00 +24°C° 0 mm 12 m/S 720 mmHg 18%
    14:00 +24°C° 0 mm 11 m/S 720 mmHg 18%
    15:00 +26°C° 0 mm 11 m/S 720 mmHg 18%
    16:00 +26°C° 0 mm 10 m/S 719 mmHg 17%
    17:00 +24°C° 0 mm 10 m/S 720 mmHg 19%
    18:00 +23°C° 0 mm 10 m/S 720 mmHg 20%
    19:00 +22°C° 0 mm 10 m/S 720 mmHg 21%
    20:00 +22°C° 0 mm 10 m/S 720 mmHg 23%
    21:00 +21°C° 0 mm 10 m/S 721 mmHg 24%
    22:00 +19°C° 0 mm 10 m/S 721 mmHg 26%
    23:00 +19°C° 0 mm 10 m/S 721 mmHg 27%
    Mehr zeigen